Погода в Григишкесе

Литва     54°40′14″N   25°05′38″E
темп.,
°C
ветер,
м/с
пор.,
м/с
влажн.,
%
обл.,
%
осадки,
мм/ч
давл.,
гПа
погр.,
м
19 сентября, вс
вс1900:00+6св71493100 4.2 1013888
03:00+6св71492100 6.1 1012857
06:00+6св71491100 1.9 1012831
09:00+6св71393100 3.0 1012930
12:00+6св71294100 1.6 1013911
15:00+5св71296100 4.3 1014828
18:00+5св61197100 1.6 1014859
21:00+5св51097100 2.3 10151003
20 сентября, пн
пн2000:00+5св6990100 0.3 10151015
03:00+4ссв51097100 0.5 1016861
06:00+4ссв5995100 0.1 1016894
09:00+3ссв51097100 0.5 1016713
12:00+4ссв5997100 0.8 1017715
15:00+4с5897100 1.4 1017719
18:00+4ссв5897100 0.5 1018725
21:00+4с4998100 0.9 1019823
21 сентября, вт
вт2100:00+5с4794100 0.1 1019850
03:00+5с5894100 0.1 1019745
06:00+4с5896100 0.1 1020839
09:00+4с5897100 0.2 1020752
12:00+4ссз5897100 0.1 1021738
15:00+5ссз4890100 0.2 1022817
18:00+6ссз4985100 0.1 1022718
21:00+6сз3986100 0.1 1022377
22 сентября, ср
ср2200:00+6ссз4985100 0.0 1022365
03:00+5сз388598 0.0 1022265
06:00+2сз39955 0.0 1022202
09:00+4ссз410845 0.0 1022330
12:00+9с57646 0.0 1021918
15:00+11ссз565311 0.0 10201403
18:00+10ссз47625 0.0 1019411
21:00+5сз34775 0.0 101952
23 сентября, чт
чт2300:00+3ссз22843 0.0 101837
03:00+3зсз22880 0.0 101725
06:00+2зюз22886 0.0 101510
09:00+5юз2478100 0.0 1013125
12:00+9ююз4670100 0.0 1010347
15:00+8ююз41094100 1.3 1007361
18:00+9ююз41198100 0.8 1004412
21:00+9юз51294100 2.4 1002588